Location: B?ogocice
(50.2413°N, 20.2361°E)
Time: 02:50:30
(UTC+00:00)

ALOS - Pass Details

Date: 28 September 2024
Orbit: 670 x 673 km, 98.0° (Epoch: 04 October)

Event Time Altitude Azimuth Distance (km) Brightness Sun altitude
Rises 00:31:23 0° 24° (NNE) 3,029 6.5 -35.4°
Reaches altitude 10° 00:33:59 10° 37° (NE) 2,110 5.6 -35.2°
Enters shadow 00:36:30 22° 67° (ENE) 1,461 4.4 -34.9°
